�������l�o���
Date,Time,MP-1(��Sv/h),MP-2(��Sv/h),MP-3(��Sv/h),MP-4(��Sv/h),MP-5(��Sv/h),MP-6(��Sv/h),MP-7(��Sv/h),MP-8(��Sv/h),����,����(m/s),���J
2017/10/15,00:00,0.891,1.405,0.915,1.693,1.157,0.493,0.901,0.838,�k��,4.2,��
2017/10/15,00:10,0.891,1.406,0.916,1.695,1.155,0.494,0.901,0.840,�k��,3.9,��
2017/10/15,00:20,0.891,1.405,0.915,1.696,1.157,0.495,0.903,0.839,�k��,4.3,��
2017/10/15,00:30,0.891,1.405,0.918,1.697,1.154,0.494,0.903,0.838,�k��,4.2,��
2017/10/15,00:40,0.890,1.404,0.916,1.693,1.158,0.494,0.903,0.838,�k��,3.8,��
2017/10/15,00:50,0.893,1.406,0.915,1.695,1.156,0.495,0.902,0.839,�k��,3.8,��
2017/10/15,01:00,0.889,1.404,0.913,1.696,1.157,0.495,0.900,0.837,�k��,3.9,��
2017/10/15,01:10,0.892,1.406,0.916,1.697,1.156,0.493,0.902,0.839,�k��,5.3,��
2017/10/15,01:20,0.891,1.407,0.916,1.696,1.158,0.495,0.901,0.839,�k�k��,3.7,��
2017/10/15,01:30,0.892,1.406,0.917,1.695,1.156,0.495,0.901,0.837,�k�k��,3.4,��
2017/10/15,01:40,0.891,1.406,0.915,1.695,1.158,0.495,0.902,0.839,�k�k��,2.3,��
2017/10/15,01:50,0.892,1.408,0.916,1.695,1.160,0.494,0.903,0.839,�k�k��,3.6,��
2017/10/15,02:00,0.892,1.404,0.917,1.697,1.160,0.494,0.902,0.841,�k��,3.6,��
2017/10/15,02:10,0.891,1.410,0.914,1.695,1.159,0.494,0.904,0.838,�k��,3.1,��
2017/10/15,02:20,0.891,1.408,0.919,1.698,1.158,0.494,0.902,0.838,�k��,2.0,��
2017/10/15,02:30,0.890,1.407,0.917,1.696,1.158,0.495,0.901,0.839,�k��,2.5,��
2017/10/15,02:40,0.890,1.408,0.916,1.695,1.157,0.494,0.902,0.838,�k�k��,2.9,��
2017/10/15,02:50,0.892,1.409,0.917,1.695,1.157,0.495,0.904,0.839,�k�k��,3.5,��
2017/10/15,03:00,0.892,1.408,0.917,1.695,1.159,0.495,0.902,0.838,�k�k��,3.3,��
2017/10/15,03:10,0.891,1.408,0.916,1.697,1.159,0.497,0.902,0.840,�k�k��,3.1,��
2017/10/15,03:20,0.893,1.408,0.918,1.698,1.160,0.495,0.902,0.839,�k�k��,3.2,��
2017/10/15,03:30,0.893,1.406,0.919,1.698,1.160,0.496,0.902,0.839,�k�k��,3.0,��
2017/10/15,03:40,0.891,1.405,0.918,1.698,1.159,0.495,0.904,0.840,�k�k��,3.5,��
2017/10/15,03:50,0.892,1.406,0.919,1.697,1.159,0.496,0.902,0.838,�k�k��,3.4,��
2017/10/15,04:00,0.891,1.409,0.917,1.696,1.159,0.494,0.903,0.839,�k�k��,3.3,��
2017/10/15,04:10,0.893,1.410,0.917,1.697,1.159,0.493,0.904,0.839,�k�k��,3.6,��
2017/10/15,04:20,0.892,1.410,0.919,1.697,1.159,0.495,0.902,0.838,�k�k��,3.5,��
2017/10/15,04:30,0.891,1.408,0.916,1.696,1.159,0.494,0.902,0.839,�k��,3.5,��
2017/10/15,04:40,0.891,1.408,0.918,1.698,1.158,0.496,0.903,0.839,�k��,4.1,��
2017/10/15,04:50,0.892,1.408,0.917,1.698,1.160,0.495,0.903,0.840,�k��,4.2,��
2017/10/15,05:00,0.891,1.407,0.916,1.699,1.161,0.494,0.902,0.838,�k��,3.6,��
2017/10/15,05:10,0.892,1.411,0.914,1.700,1.160,0.495,0.903,0.839,�k�k��,3.5,��
2017/10/15,05:20,0.893,1.410,0.916,1.699,1.162,0.495,0.903,0.839,�k�k��,4.1,��
2017/10/15,05:30,0.891,1.410,0.918,1.698,1.161,0.494,0.903,0.840,�k�k��,4.2,��
2017/10/15,05:40,0.891,1.409,0.917,1.701,1.159,0.494,0.904,0.840,�k�k��,5.2,��
2017/10/15,05:50,0.893,1.410,0.918,1.699,1.161,0.495,0.902,0.841,�k�k��,6.0,��
2017/10/15,06:00,0.891,1.409,0.916,1.699,1.162,0.495,0.902,0.841,�k�k��,6.6,��
2017/10/15,06:10,0.889,1.409,0.919,1.703,1.162,0.496,0.901,0.841,�k�k��,7.1,��
2017/10/15,06:20,0.893,1.411,0.918,1.700,1.164,0.496,0.902,0.840,�k�k��,6.6,��
2017/10/15,06:30,0.894,1.410,0.919,1.699,1.164,0.496,0.901,0.838,�k�k��,7.0,��
2017/10/15,06:40,0.893,1.409,0.918,1.703,1.160,0.495,0.903,0.838,�k�k��,7.0,��
2017/10/15,06:50,0.891,1.409,0.919,1.701,1.163,0.496,0.905,0.840,�k�k��,5.7,��
2017/10/15,07:00,0.891,1.408,0.915,1.702,1.162,0.495,0.902,0.841,�k�k��,5.4,��
2017/10/15,07:10,0.892,1.409,0.917,1.701,1.162,0.494,0.904,0.840,�k�k��,5.9,��
2017/10/15,07:20,0.891,1.412,0.918,1.700,1.163,0.498,0.903,0.841,�k�k��,5.9,��
2017/10/15,07:30,0.894,1.410,0.919,1.703,1.162,0.495,0.904,0.839,�k�k��,5.2,��
2017/10/15,07:40,0.893,1.409,0.920,1.702,1.159,0.495,0.903,0.839,�k�k��,5.9,��
2017/10/15,07:50,0.893,1.413,0.919,1.702,1.162,0.495,0.903,0.841,�k�k��,5.9,��
2017/10/15,08:00,0.894,1.412,0.918,1.703,1.164,0.495,0.903,0.842,�k�k��,5.7,��
2017/10/15,08:10,0.891,1.411,0.918,1.704,1.161,0.496,0.903,0.840,�k�k��,6.2,��
2017/10/15,08:20,0.891,1.410,0.920,1.703,1.162,0.497,0.904,0.840,�k�k��,5.1,��
2017/10/15,08:30,0.892,1.412,0.919,1.704,1.164,0.494,0.903,0.840,�k�k��,5.9,��
2017/10/15,08:40,0.892,1.411,0.919,1.704,1.164,0.496,0.903,0.841,�k�k��,5.3,��
2017/10/15,08:50,0.893,1.412,0.918,1.703,1.162,0.496,0.902,0.841,�k�k��,5.0,��
2017/10/15,09:00,0.893,1.414,0.919,1.706,1.165,0.496,0.904,0.841,�k��,4.9,��
2017/10/15,09:10,0.893,1.412,0.919,1.704,1.162,0.497,0.904,0.838,�k�k��,5.1,��
2017/10/15,09:20,0.894,1.413,0.922,1.706,1.163,0.497,0.903,0.842,�k�k��,4.8,��
2017/10/15,09:30,0.893,1.413,0.920,1.705,1.166,0.496,0.906,0.842,�k�k��,3.9,��
2017/10/15,09:40,0.895,1.414,0.919,1.705,1.166,0.496,0.905,0.843,�k�k��,4.5,�L
2017/10/15,09:50,0.895,1.413,0.920,1.705,1.164,0.496,0.905,0.839,�k�k��,4.9,�L
2017/10/15,10:00,0.896,1.416,0.920,1.704,1.166,0.495,0.906,0.842,�k�k��,6.2,��
2017/10/15,10:10,0.896,1.413,0.920,1.705,1.163,0.497,0.904,0.841,�k�k��,5.9,��
2017/10/15,10:20,0.895,1.412,0.922,1.704,1.166,0.497,0.903,0.843,�k�k��,6.6,�L
2017/10/15,10:30,0.898,1.416,0.923,1.706,1.165,0.496,0.904,0.843,�k�k��,5.9,�L
2017/10/15,10:40,0.895,1.414,0.922,1.706,1.166,0.497,0.904,0.842,�k�k��,5.9,�L
2017/10/15,10:50,0.894,1.416,0.921,1.709,1.165,0.497,0.904,0.843,�k�k��,4.9,�L
2017/10/15,11:00,0.894,1.415,0.921,1.708,1.166,0.495,0.904,0.843,�k�k��,5.3,�L
2017/10/15,11:10,0.896,1.416,0.921,1.711,1.166,0.497,0.904,0.843,�k�k��,4.3,��
2017/10/15,11:20,0.895,1.419,0.922,1.708,1.166,0.495,0.906,0.842,�k�k��,4.4,��
2017/10/15,11:30,0.898,1.418,0.922,1.710,1.166,0.496,0.905,0.842,�k�k��,4.4,��
2017/10/15,11:40,0.895,1.416,0.922,1.710,1.167,0.497,0.906,0.843,�k�k��,5.1,��
2017/10/15,11:50,0.896,1.418,0.926,1.711,1.168,0.498,0.906,0.843,�k�k��,5.1,��
2017/10/15,12:00,0.897,1.420,0.924,1.709,1.168,0.496,0.906,0.842,�k,5.0,��
2017/10/15,12:10,0.896,1.418,0.922,1.707,1.169,0.496,0.905,0.841,�k,4.2,��
2017/10/15,12:20,0.895,1.420,0.922,1.709,1.169,0.495,0.905,0.842,�k�k��,5.1,��
2017/10/15,12:30,0.894,1.417,0.925,1.711,1.166,0.496,0.906,0.841,�k,4.2,��
2017/10/15,12:40,0.894,1.416,0.923,1.711,1.167,0.495,0.905,0.841,�k,3.5,��
2017/10/15,12:50,0.893,1.418,0.924,1.710,1.168,0.494,0.905,0.843,�k�k��,4.1,��
2017/10/15,13:00,0.892,1.419,0.924,1.708,1.169,0.495,0.904,0.841,�k,3.1,��
2017/10/15,13:10,0.894,1.415,0.924,1.710,1.168,0.498,0.905,0.840,�k�k��,2.8,��
2017/10/15,13:20,0.897,1.419,0.925,1.711,1.168,0.497,0.905,0.842,�k,3.5,��
2017/10/15,13:30,0.894,1.416,0.924,1.707,1.169,0.496,0.905,0.842,�k�k��,3.3,��
2017/10/15,13:40,0.897,1.418,0.924,1.709,1.169,0.496,0.906,0.841,�k,4.5,��
2017/10/15,13:50,0.894,1.422,0.925,1.712,1.171,0.497,0.906,0.841,�k,5.0,��
2017/10/15,14:00,0.896,1.422,0.926,1.714,1.170,0.495,0.905,0.840,�k,4.7,��
2017/10/15,14:10,0.896,1.420,0.926,1.709,1.170,0.495,0.905,0.842,�k,4.4,��
2017/10/15,14:20,0.895,1.422,0.925,1.712,1.170,0.496,0.908,0.842,�k,4.2,��
2017/10/15,14:30,0.895,1.422,0.924,1.712,1.169,0.495,0.905,0.843,�k,3.8,��
2017/10/15,14:40,0.897,1.420,0.926,1.713,1.166,0.496,0.908,0.840,�k,3.9,��
2017/10/15,14:50,0.896,1.420,0.926,1.712,1.169,0.496,0.906,0.840,�k,4.0,��
2017/10/15,15:00,0.896,1.420,0.925,1.716,1.170,0.494,0.905,0.842,�k,3.9,��
2017/10/15,15:10,0.895,1.420,0.925,1.713,1.170,0.495,0.907,0.840,�k�k��,4.0,��
2017/10/15,15:20,0.898,1.423,0.927,1.713,1.171,0.496,0.904,0.840,�k�k��,4.6,��
2017/10/15,15:30,0.898,1.424,0.926,1.710,1.171,0.497,0.906,0.842,�k�k��,5.1,��
2017/10/15,15:40,0.898,1.425,0.926,1.714,1.171,0.497,0.907,0.842,�k�k��,5.0,��
2017/10/15,15:50,0.900,1.422,0.927,1.712,1.169,0.497,0.906,0.843,�k�k��,5.4,��
2017/10/15,16:00,0.900,1.422,0.927,1.712,1.171,0.499,0.907,0.842,�k�k��,5.1,��
2017/10/15,16:10,0.899,1.424,0.925,1.712,1.172,0.498,0.906,0.845,�k��,5.6,��
2017/10/15,16:20,0.900,1.427,0.926,1.713,1.173,0.497,0.905,0.845,�k�k��,4.8,�L
2017/10/15,16:30,0.898,1.423,0.926,1.715,1.174,0.497,0.906,0.843,�k�k��,3.9,��
2017/10/15,16:40,0.900,1.423,0.928,1.714,1.173,0.497,0.906,0.844,�k��,3.8,��
2017/10/15,16:50,0.898,1.423,0.924,1.717,1.173,0.495,0.906,0.843,���k��,3.5,��
2017/10/15,17:00,0.898,1.425,0.925,1.716,1.173,0.497,0.907,0.842,���k��,3.0,��
2017/10/15,17:10,0.896,1.422,0.928,1.715,1.173,0.497,0.906,0.843,���k��,2.9,��
2017/10/15,17:20,0.897,1.422,0.926,1.715,1.176,0.496,0.907,0.845,�k��,2.8,��
2017/10/15,17:30,0.901,1.424,0.925,1.716,1.176,0.497,0.907,0.842,�k��,2.9,��
2017/10/15,17:40,0.899,1.423,0.927,1.713,1.176,0.496,0.906,0.843,�k��,2.5,��
2017/10/15,17:50,0.898,1.426,0.926,1.713,1.173,0.496,0.907,0.843,�k��,2.2,��
2017/10/15,18:00,0.897,1.423,0.925,1.713,1.174,0.497,0.906,0.844,�k��,2.6,��
2017/10/15,18:10,0.898,1.424,0.927,1.715,1.174,0.499,0.906,0.844,�k��,3.4,��
2017/10/15,18:20,0.899,1.424,0.927,1.713,1.174,0.496,0.908,0.844,�k��,4.0,��
2017/10/15,18:30,0.898,1.426,0.924,1.713,1.173,0.499,0.908,0.844,�k��,4.3,��
2017/10/15,18:40,0.899,1.425,0.926,1.712,1.174,0.497,0.906,0.843,�k��,4.1,��
2017/10/15,18:50,0.898,1.427,0.925,1.714,1.175,0.496,0.909,0.845,�k��,4.9,��
2017/10/15,19:00,0.899,1.425,0.927,1.714,1.173,0.496,0.908,0.843,�k��,5.0,��
2017/10/15,19:10,0.898,1.425,0.925,1.716,1.176,0.496,0.907,0.843,�k��,4.4,��
2017/10/15,19:20,0.898,1.423,0.926,1.715,1.176,0.496,0.908,0.842,�k��,3.8,��
2017/10/15,19:30,0.897,1.425,0.926,1.716,1.173,0.496,0.908,0.844,�k��,5.7,��
2017/10/15,19:40,0.898,1.423,0.928,1.715,1.178,0.498,0.910,0.842,�k��,5.6,��
2017/10/15,19:50,0.899,1.426,0.925,1.717,1.176,0.498,0.907,0.844,�k��,5.7,��
2017/10/15,20:00,0.896,1.424,0.927,1.718,1.174,0.496,0.909,0.843,�k��,6.3,��
2017/10/15,20:10,0.899,1.423,0.925,1.715,1.173,0.497,0.908,0.843,�k��,5.7,��
2017/10/15,20:20,0.899,1.424,0.927,1.716,1.174,0.498,0.909,0.843,�k��,5.2,��
2017/10/15,20:30,0.899,1.423,0.927,1.718,1.175,0.497,0.909,0.844,�k��,5.3,��
2017/10/15,20:40,0.898,1.425,0.925,1.716,1.173,0.498,0.909,0.843,�k��,6.0,��
2017/10/15,20:50,0.899,1.424,0.929,1.715,1.176,0.497,0.908,0.844,�k��,5.2,��
2017/10/15,21:00,0.898,1.422,0.925,1.715,1.175,0.496,0.908,0.844,�k��,5.5,��
2017/10/15,21:10,0.898,1.425,0.924,1.718,1.174,0.496,0.908,0.843,�k��,5.3,��
2017/10/15,21:20,0.899,1.427,0.925,1.720,1.175,0.498,0.907,0.845,�k�k��,5.6,��
2017/10/15,21:30,0.898,1.425,0.925,1.717,1.176,0.497,0.906,0.845,�k�k��,6.2,��
2017/10/15,21:40,0.900,1.425,0.925,1.715,1.177,0.497,0.908,0.845,�k�k��,5.9,��
2017/10/15,21:50,0.898,1.426,0.926,1.718,1.176,0.496,0.908,0.844,�k�k��,6.5,��
2017/10/15,22:00,0.897,1.424,0.928,1.715,1.175,0.498,0.908,0.844,�k�k��,5.5,��
2017/10/15,22:10,0.899,1.425,0.927,1.718,1.176,0.497,0.909,0.846,�k�k��,5.9,��
2017/10/15,22:20,0.897,1.427,0.927,1.718,1.175,0.496,0.907,0.843,�k�k��,5.8,��
2017/10/15,22:30,0.898,1.427,0.926,1.715,1.177,0.497,0.908,0.842,�k�k��,6.2,��
2017/10/15,22:40,0.897,1.426,0.926,1.718,1.176,0.497,0.908,0.845,�k�k��,5.9,��
2017/10/15,22:50,0.900,1.424,0.928,1.717,1.174,0.496,0.910,0.844,�k�k��,5.9,��
2017/10/15,23:00,0.896,1.426,0.927,1.717,1.176,0.495,0.907,0.844,�k�k��,5.7,��
2017/10/15,23:10,0.898,1.425,0.927,1.718,1.174,0.496,0.909,0.844,�k�k��,6.8,��
2017/10/15,23:20,0.895,1.424,0.926,1.719,1.176,0.498,0.908,0.845,�k�k��,7.4,��
2017/10/15,23:30,0.898,1.428,0.926,1.720,1.176,0.497,0.909,0.844,�k�k��,6.8,��
2017/10/15,23:40,0.898,1.426,0.923,1.717,1.175,0.497,0.909,0.844,�k�k��,7.7,��
2017/10/15,23:50,0.898,1.427,0.925,1.718,1.175,0.498,0.910,0.844,�k�k��,7.9,��
